Location: Unspecified
(0.0000°N, 0.0000°E)
Time: 07:51:01
(UTC+00:00)

Explorer 7 - All Passes

Search period start: 20 October 2021 00:00
Search period end: 30 October 2021 00:00
Orbit: 484 x 676 km, 50.3° (Epoch: 19 October)

Date Brightness Start Highest point End Pass type
(mag) Time Alt. Az. Time Alt. Az. Time Alt. Az.
20 Oct - 06:42:28 10° N 06:46:33 27° NE 06:50:34 10° ESE daylight
20 Oct - 08:23:05 10° WNW 08:26:57 24° SW 08:30:43 10° S daylight
20 Oct - 18:45:06 10° S 18:48:23 28° SE 18:51:43 10° ENE visible
20 Oct - 20:26:58 10° WNW 20:28:39 12° NW 20:30:21 10° NNW visible
21 Oct - 06:45:58 10° NNW 06:50:43 52° NE 06:55:22 10° SE daylight
21 Oct - 08:29:07 10° WSW 08:31:06 12° SW 08:33:04 10° SSW daylight
21 Oct - 18:48:47 10° SSW 18:52:30 68° SE 18:56:18 10° NE visible
22 Oct - 06:49:57 10° NW 06:54:50 80° SW 06:59:37 10° SSE daylight
22 Oct - 18:53:00 10° SW 18:56:38 48° NW 19:00:20 10° NNE visible
23 Oct - 05:15:28 10° NNE 05:18:31 17° NE 05:21:35 10° E visible
23 Oct - 06:54:24 10° WNW 06:58:57 40° SW 07:03:26 10° SSE daylight
23 Oct - 17:18:13 10° SSE 17:20:33 16° SE 17:22:54 10° E daylight
23 Oct - 18:57:50 10° WSW 19:00:47 22° NW 19:03:46 10° N visible
24 Oct - 05:18:24 10° N 05:22:42 31° NE 05:26:58 10° ESE visible
24 Oct - 06:59:26 10° WNW 07:03:06 21° SW 07:06:43 10° S daylight
24 Oct - 17:21:17 10° SSW 17:24:42 34° SE 17:28:08 10° ENE daylight
24 Oct - 19:04:38 10° WNW 19:04:58 10° NW 19:05:19 10° NW visible
25 Oct - 05:22:01 10° NNW 05:26:50 60° NE 05:31:36 10° SE daylight
25 Oct - 07:05:59 10° WSW 07:07:16 11° SW 07:08:32 10° SW daylight
25 Oct - 17:25:05 10° SW 17:28:49 83° SE 17:32:34 10° NE daylight
26 Oct - 05:26:06 10° NW 05:30:56 69° SW 05:35:46 10° SSE daylight
26 Oct - 17:29:25 10° WSW 17:32:56 40° NW 17:36:29 10° NNE daylight
27 Oct - 03:51:15 10° N 03:54:39 19° NE 03:58:04 10° E visible
27 Oct - 05:30:38 10° WNW 05:35:04 35° SW 05:39:29 10° SSE daylight
27 Oct - 15:54:10 10° S 15:56:51 19° SE 15:59:31 10° E daylight
27 Oct - 17:34:27 10° W 17:37:04 18° NW 17:39:43 10° N daylight
28 Oct - 03:54:22 10° NNW 03:58:47 35° NE 04:03:14 10° ESE visible
28 Oct - 05:35:49 10° W 05:39:13 19° SW 05:42:35 10° S daylight
28 Oct - 15:57:25 10° SSW 16:00:59 40° SE 16:04:31 10° NE daylight
29 Oct - 03:58:05 10° NNW 04:02:55 70° NE 04:07:46 10° SE visible
29 Oct - 16:01:20 10° SW 16:05:06 81° NW 16:08:50 10° NE daylight
